{"data":{"norad_id":65858,"epoch":"2026-09-20T22:15:06.884928Z","epoch_age_seconds":69299,"freshness":"FRESH","line1":"1 65858U 25223E   26263.92716302  .00012653  00000+0  38523-3 0  9995","line2":"2 65858  53.1566 105.4576 0001198  77.6520 282.4617 15.34380300 54123","mean_motion":15.343803,"eccentricity":0.0001198,"inclination_deg":53.1566,"raan_deg":105.4576,"arg_perigee_deg":77.652,"mean_anomaly_deg":282.4617,"bstar":0.00038523,"rev_number":5412,"period_min":93.848962998287,"perigee_km":461.94225370971,"apogee_km":463.58133306061,"semimajor_km":6840.8987933852,"source":"CELESTRAK","updated_at":"2026-09-21T09:00:35.725960Z"}}